Location: Carri�res
(48.9069°N, 2.1792°E)
Time: 13:18:26
(UTC+00:00)

CZ-4C R/B - Pass Details

Date: 17 January 2021
Orbit: 617 x 1385 km, 63.4° (Epoch: 25 February)

Event Time Altitude Azimuth Distance (km) Brightness Sun altitude
Rises 19:04:10 0° 265° (W) 3,190 6.6 -25.5°
Reaches altitude 10° 19:06:41 10° 277° (W) 2,367 5.5 -25.9°
Maximum altitude 19:11:28 29° 338° (NNW) 1,575 3.7 -26.7°
Enters shadow 19:13:43 24° 12° (NNE) 1,877 3.8 -27.1°
